{"data":{"norad_id":64207,"intl_designator":"2025-117E","name":"STARLINK-34324","alt_names":[],"object_type":"PAYLOAD","status":"ACTIVE","operator":null,"country":"US","launch_date":"2025-05-31","launch_site_code":"AFWTR","launch_vehicle":null,"mission":null,"orbit_class":"UNKNOWN","rcs_meters":null,"size_class":null,"mass_kg":null,"dimensions":null,"purposes":["comms"],"wikipedia_slug":null,"has_3d_model":false,"image_url":null,"decayed_at":null,"tle_current":{"epoch":"2026-05-25T00:27:55.867104Z","epoch_age_seconds":73456,"freshness":"FRESH","line1":"1 64207U 25117E   26145.01939661  .00014174  00000+0  48962-3 0  9996","line2":"2 64207  53.1574  44.9505 0001095  54.5713 305.5390 15.30208640 55186","mean_motion":15.3020864,"eccentricity":0.0001095,"inclination_deg":53.1574,"raan_deg":44.9505,"arg_perigee_deg":54.5713,"mean_anomaly_deg":305.539,"bstar":0.00048962,"rev_number":5518,"period_min":94.104814360478,"perigee_km":474.43883283129,"apogee_km":475.93971128487,"semimajor_km":6853.3262720581,"source":"CELESTRAK","updated_at":"2026-05-25T13:38:20.317214Z"}}}